Williamsport, PA

9:21 PM EDT on April 20, 2018 (GMT -0400)
Williamsport Rgnl

Weather History for KIPT - September, 2013

Change the Weather History Date:

Saturday, September 28, 2013

  Actual Average Record
Temperature  
Mean Temperature 60 °F 58 °F  
Max Temperature 72 °F 69 °F 90 °F (1929)
Min Temperature 47 °F 48 °F 28 °F (1947)
Degree Days  
Heating Degree Days 5 7  
Month to date heating degree days 113 99  
Since 1 July heating degree days 118 113  
Cooling Degree Days 0 1  
Month to date cooling degree days 74 62  
Year to date cooling degree days 833 696  
Growing Degree Days 9 (Base 50)    
Moisture  
Dew Point 49 °F    
Average Humidity 69    
Maximum Humidity 93    
Minimum Humidity 44    
Precipitation  
Precipitation 0.00 in 0.13 in 1.89 in (2004)
Month to date precipitation 1.60 3.88  
Year to date precipitation 23.22 30.91  
Sea Level Pressure  
Sea Level Pressure 30.27 in    
Wind  
Wind Speed 2 mph (ESE)    
Max Wind Speed 9 mph    
Max Gust Speed 12 mph    
Visibility 10 miles    
Events      
T = Trace of Precipitation, MM = Missing Value Source: NWS Daily Summary

Daily Weather History Graph

Daily Weather History Graph

Search for Another Location

Airport or City:

Astronomy

Sep. 28, 2013 Rise Set
Actual Time 7:01 AM EDT 6:54 PM EDT
Civil Twilight 6:34 AM EDT 7:21 PM EDT
Nautical Twilight 6:01 AM EDT 7:53 PM EDT
Astronomical Twilight 5:29 AM EDT 8:26 PM EDT
Moon 12:44 AM EDT (9/28) 3:14 PM EDT (9/28)
Length of Visible Light 12h 47m
Length of Day
11h 52m
Last Quarter, 36% of the Moon is Illuminated
Sep 28
Last Quarter
Oct 4
New
Oct 11
First Quarter
Oct 18
Full
Oct 26
Last Quarter

Hourly Weather History & Observations

Time (EDT) Temp. Dew Point Humidity Pressure Visibility Wind Dir Wind Speed Gust Speed Precip Events Conditions
12:54 AM 52.0 °F 48.0 °F 86% 30.25 in 10.0 mi North 3.5 mph - N/A   Clear
1:54 AM 50.0 °F 46.9 °F 89% 30.27 in 10.0 mi Calm Calm - N/A   Clear
2:54 AM 50.0 °F 48.0 °F 93% 30.27 in 10.0 mi Calm Calm - N/A   Clear
3:54 AM 48.9 °F 46.9 °F 93% 30.27 in 10.0 mi NW 4.6 mph - N/A   Mostly Cloudy
4:54 AM 50.0 °F 46.9 °F 89% 30.27 in 10.0 mi Calm Calm - N/A   Overcast
5:54 AM 48.9 °F 46.0 °F 90% 30.29 in 10.0 mi NNW 3.5 mph - N/A   Overcast
6:36 AM 48.2 °F 46.4 °F 93% 30.30 in 10.0 mi Calm Calm - N/A   Overcast
6:54 AM 48.9 °F 46.0 °F 90% 30.31 in 10.0 mi Calm Calm - N/A   Overcast
7:54 AM 50.0 °F 46.9 °F 89% 30.32 in 10.0 mi Calm Calm - N/A   Overcast
8:54 AM 54.0 °F 48.9 °F 83% 30.32 in 10.0 mi Calm Calm - N/A   Clear
9:54 AM 57.9 °F 51.1 °F 78% 30.33 in 10.0 mi Calm Calm - N/A   Mostly Cloudy
10:54 AM 63.0 °F 53.1 °F 70% 30.33 in 10.0 mi East 3.5 mph - N/A   Clear
11:54 AM 66.9 °F 52.0 °F 59% 30.31 in 10.0 mi ESE 3.5 mph - N/A   Clear
12:54 PM 68.0 °F 50.0 °F 52% 30.30 in 10.0 mi ENE 5.8 mph - N/A   Mostly Cloudy
1:54 PM 68.0 °F 50.0 °F 52% 30.28 in 10.0 mi East 5.8 mph - N/A   Overcast
2:54 PM 70.0 °F 48.0 °F 46% 30.26 in 10.0 mi South 6.9 mph - N/A   Mostly Cloudy
3:54 PM 69.1 °F 48.0 °F 47% 30.25 in 10.0 mi Variable 3.5 mph - N/A   Mostly Cloudy
4:54 PM 71.1 °F 48.9 °F 45% 30.24 in 10.0 mi South 5.8 mph - N/A   Overcast
5:54 PM 69.1 °F 48.9 °F 49% 30.23 in 10.0 mi South 4.6 mph - N/A   Clear
6:54 PM 61.0 °F 53.1 °F 75% 30.23 in 10.0 mi Calm Calm - N/A   Clear
7:54 PM 57.9 °F 53.1 °F 84% 30.24 in 10.0 mi Calm Calm - N/A   Partly Cloudy
8:54 PM 55.9 °F 52.0 °F 87% 30.25 in 10.0 mi Calm Calm - N/A   Mostly Cloudy
9:54 PM 55.0 °F 51.1 °F 86% 30.25 in 10.0 mi Calm Calm - N/A   Clear
10:54 PM 53.1 °F 50.0 °F 89% 30.24 in 10.0 mi Calm Calm - N/A   Clear
11:54 PM 52.0 °F 48.9 °F 89% 30.23 in 10.0 mi Calm Calm - N/A   Clear